QZS-1R

Last updated on Mon Oct 14 2024 00:02:41 GMT+0000 (Coordinated Universal Time)

1 49336U 21096A 24286.79159036 -.00000181 00000+0 00000+0 0 9994 2 49336 36.1873 88.7481 0746053 270.1333 83.5748 1.00281614 10879
UTC large
Height (km)
Speed (km/s)
/
Latitude / Longitude
Inclination (degrees)
Orbital Period (minutes)
Azimuth
Elevation
Range (km)
Doppler Factor

Next 0 passes for location: London (51.5072 / 0.1276)

Sorry there are no passes over London.